National Weather Service United States Department of Commerce

Observations from across/near northern Michigan

Marine Observations

Michigan Hourly Observations

 

Yesterday's high, low and precipitation reports from across northern Michigan

Northern Michigan Temperatures and Precipitation

 

Observation Text Products


000
SXUS83 KAPX 111038
OMRAPX

Marine Observations
National Weather Service Gaylord MI
638 AM EDT Sun Apr 11 2021

WIND DATA (KTS) WAVES WATER
SITE DATE/TIME DIR SPEED GUST (FT) TEMP(F) SITE NAME
-------------------------------------------------------------

Lake Superior/St Marys River

GRMM4 110940Z 70 12 16 Grand Marais
PTIM4 111018Z CALM Point Iroquois
CYAM 111000Z 50 11 SOO (Canada)
KANJ 111025Z 50 7 Sault Ste Marie
SWPM4 111018Z 89 6 11 S.W. Pier
LTRM4 111018Z 71 13 15 Little Rapids
RCKM4 111018Z 45 8 10 Rock Cut
WNEM4 111012Z 64 5 9 West Nebish Island

Lake Huron

DTLM4 111018Z 60 12 14 DeTour Village
KDRM 111015Z 80 6 15 Drummond Island
KMCD 111015Z 60 15 22 Mackinac Island
MACM4 111018Z 74 10 15 Mackinac City
KSLH 111015Z 50 7 Cheboygan Airport
CYGM4 110950Z 070 6 14 Cheboygan Marina
KPZQ 111015Z 90 8 Rogers City
PRIM4 110950Z 110 7 15 Presque Isle Light
KAPN 111025Z 70 3 Alpena Guard Base
SPTM4 110950Z 340 1 8 Sturgeon Point Light
KOSC 111015Z 40 4 Oscoda
GSLM4 110940Z 23 5 11 Gravelly Shoals
KP58 110955Z 110 9 Port Hope

Lake Michigan

KISQ 111015Z 350 14 19 Manistique
NABM4 110940Z 19 13 17 Naubinway
KSJX 111021Z 50 5 St James
KPLN 111030Z 70 6 Pellston
KMGN 111015Z 70 14 18 Harbor Springs
KCVX 111015Z 60 11 Charlevoix
NMIM4 110928Z 339 3 7 North Manitou Island
GTLM4 111010Z 30 11 19 Grand Traverse Light
KTVC 111025Z 250 4 Traverse City
KFKS 111015Z CALM Frankfort
MEEM4 110940Z 22 4 5 Manistee Harbor
BSBM4 110940Z 170 6 10 Big Sable Point
LDTM4 111012Z 243 2 5 Ludington
KLDM 111015Z CALM Ludington Airport


457
ASUS43 KDTX 111010
RWRMI
MICHIGAN HOURLY REGIONAL WEATHER ROUNDUP
NATIONAL WEATHER SERVICE DETROIT/PONTIAC MI
600 AM EDT SUN APR 11 2021

NOTE: "FAIR" INDICATES FEW OR NO CLOUDS BELOW 12,000 FEET WITH NO
SIGNIFICANT WEATHER AND/OR OBSTRUCTION TO VISIBILITY.

MIZ047>049-052>055-059>063-066>070-074>076-081>083-111100-
SOUTHEAST LOWER MICHIGAN

CITY SKY/WX TMP DP RH WIND PRES REMARKS
ADRIAN CLOUDY 51 50 96 S3 29.40R
ALMA CLOUDY 52 52 100 CALM 29.36S
ANN ARBOR MOCLDY 48 47 96 S5 29.38R FOG
BAD AXE RAIN 55 55 100 E5 29.35S
CARO RAIN 53 49 86 S5 29.36R
DETROIT CITY MOCLDY 54 51 90 S3 29.38S
DETROIT MOCLDY 51 49 92 S6 29.39R
FLINT PTCLDY 51 49 92 CALM 29.37S FOG
GROSSE ILE PTCLDY 48 48 97 S3 29.39R
HILLSDALE CLOUDY 50 49 97 S6 29.38R
HOWELL FOG 49 47 95 CALM 29.37R VSB 1/2

CITY SKY/WX TMP DP RH WIND PRES REMARKS
JACKSON CLOUDY 51 48 89 S5 29.37S
LAMBERTVILLE CLOUDY 54 53 96 S3 29.40R
LANSING PTCLDY 49 48 97 S3 29.37R FOG
LAPEER CLOUDY 53 53 99 SW5 29.38S
MASON CLEAR 48 48 99 SE6 29.37S
MONROE MOCLDY 50 48 93 CALM 29.38S FOG
MT. CLEMENS PTCLDY 54 54 100 SW5 29.36S
PONTIAC MOCLDY 52 51 97 S3 29.36F FOG
PORT HOPE N/A 51 50 96 E10 29.35F
PORT HURON MOCLDY 55 50 82 S5 29.38S
TRI CITIES LGT RAIN 54 51 90 SW8 29.35R
MIDLAND LGT RAIN 51 51 99 NW3 29.34S
TROY MOCLDY 53 53 99 CALM 29.40R
SAGINAW HB RAIN 54 52 92 SW8 29.36R
$$
MIZ043>046-050>051-056>058-064>065-071>073-077>080-111100-
SOUTHWEST LOWER MICHIGAN

CITY SKY/WX TMP DP RH WIND PRES REMARKS
BATTLE CREEK CLOUDY 51 49 92 S7 29.36S
BENTON HARBOR MOCLDY 48 41 76 S6 29.33S
BIG RAPIDS LGT RAIN 50 49 97 CALM 29.35S
COLDWATER CLOUDY 50 44 81 SW8 29.38R
FREMONT CLOUDY N/A N/A N/A CALM 29.34S
HOLLAND CLOUDY 49 46 90 CALM 29.35R FOG
GRAND RAPIDS MOCLDY 46 46 100 S5 29.35S FOG
IONIA CLOUDY 48 48 100 S3 29.35S FOG
KALAMAZOO CLOUDY 50 43 77 SW10 29.36S
LUDINGTON CLOUDY 52 50 94 CALM 29.34S
MARSHALL CLOUDY 50 49 97 S3 29.37R
MOUNT PLEASANT LGT RAIN 53 53 100 CALM 29.35R
MUSKEGON PTCLDY 49 45 86 S5 29.35R
SOUTH HAVEN CLOUDY 49 46 90 S5 29.34S
$$
MIZ016>042-111100-
NORTHERN LOWER MICHIGAN

CITY SKY/WX TMP DP RH WIND PRES REMARKS
ALPENA LGT RAIN 47 43 86 E6 29.40S
BELLAIRE CLOUDY 52 46 79 NE3 29.35F
CADILLAC DRIZZLE 52 51 97 SW6 29.34R
CHARLEVOIX MOCLDY 52 46 79 NE9G16 29.36F
FRANKFORT RAIN 51 49 94 SW6 29.35S
GAYLORD CLOUDY 50 43 77 NE13 29.37F
GRAYLING LGT RAIN 50 48 93 E5 29.35S
HARBOR SPRINGS MOCLDY 51 44 75 E14 29.38F
MANISTEE RAIN 51 51 100 CALM 29.35R FOG
OSCODA CLOUDY 47 44 88 NE6 29.37F
PELLSTON MOCLDY 52 44 74 E8 29.41R
ROGERS CITY MOCLDY 47 42 84 E10 29.42S
TRAVERSE CITY CLOUDY 46 43 89 SW3 29.33F
$$
MIZ007>008-015-111100-
EASTERN UPPER MICHIGAN

CITY SKY/WX TMP DP RH WIND PRES REMARKS
KINROSS CLOUDY 55 46 71 E12 29.44S
MACKINAC ISLAN CLOUDY 54 42 64 NE14G21 29.40F
NEWBERRY LGT RAIN 47 46 95 N6 29.44F
S. S. MARIE MOCLDY 58 43 57 NE12G18 29.43F
MUNISING N/A 39 39 100 NW10 29.50R WCI 32
$$
MIZ004>006-011>014-085-111100-
CENTRAL UPPER MICHIGAN

CITY SKY/WX TMP DP RH WIND PRES REMARKS
MANISTIQUE LGT RAIN 48 46 92 N12 29.42S
ESCANABA LGT RAIN 45 43 93 MISG 29.41F
MENOMINEE LGT RAIN 49 47 93 NE14G20 29.38R
SAWYER-GWINN RAIN 41 40 95 N23 29.47S
$$
MIZ001>003-009>011-084-111100-
WESTERN UPPER MICHIGAN

CITY SKY/WX TMP DP RH WIND PRES REMARKS
IRON MOUNTAIN LGT RAIN 47 41 80 N13G21 29.43S
HOUGHTON LGT RAIN 45 42 89 N21G31 29.51F
COPPER HARBOR N/A 39 38 96 N9 29.57F WCI 33
IRONWOOD LGT RAIN 37 37 100 NE7 29.56F WCI 32
$$

ABBREVIATIONS USED IN REMARKS
TC - TEMPERATURE IN CELSIUS
WCI - WIND CHILL INDEX
HX - HEAT INDEX
VSB - VISIBILITY





000
ASUS63 KAPX 110132
RTPAPX


Eastern Upper/Northern Lower Michigan Temperature and Precip Summary
National Weather Service Gaylord MI
932 PM EDT Sat Apr 10 2021

18 hour High/Low Temperature ending 8 pm EDT
24 hour Precipitation/Snowfall ending 8 pm EDT
Snow Depth observed at 8 pm EDT

.BR APX 0410 ES DH19/TAIRZS/TAIRZI/PPDRZZ/SFDRZZ/SDIRZZ
:..................................................................
: MAX MIN 24 HR SNOW SNOW
:ID LOCATION TEMP TEMP PRECIP FALL DEPTH
:..................................................................
ANJ : Sault Ste Marie : 63 / 49 / 0.04 / 0.0 / 0
APN : Alpena : 65 / 41 / 0.03 / 0.0 / 0
HTL : Houghton Lake : 49 / 41 / T / 0.0 / 0
PLN : Pellston : 66 / 49 / T / /
TVC : Traverse City : 64 / 47 / 0.01 / /
GLR : Gaylord : 68 / 45 / T / /
.END

Cooperative Observations
Temperature/Precipitation/Snowfall values are for 24 hour period
ending 8 pm EDT. Snow Depth is observed at 8 pm EDT.
...................................................................
OBS MAX MIN SNOW SNOW
ID LOCATION TIME TEMP TEMP PCPN FALL DEPTH
...................................................................
MAPM4: Maple City 1E :DH1820/ 61 / 43 / 0.02 / 0.0 / 0.0
ONAM4: Onaway 4N :DH1800/ 67 / 43 / 0.05 / 0.0 / 0.0
PICM4: Pickford 3NE :DH1800/ 64 / 46 / 0.05 / 0.0 / 0.0

These data are preliminary and have not undergone final quality
control by the National Centers for Environmental Information.
Therefore...these data are subject to revision. Final
and certified climate data can be accessed at www.ncdc.noaa.gov.

&&

The following are supplemental temperature and precipitation data.
This includes data which are received from non-National Weather
Service maintained observing systems...as well as reports from
public weather spotters. Data is only partially quality controlled
and is not suitable for official climatological records.

.BR APX 0410 ES DH19/TAIRZS/TAIRZI
:
:Automated Temperature Data--18 hr High/Low ending 8 pm EDT
:..................................................................
: MAX MIN
:ID LOCATION TEMP TEMP
:..................................................................
:
ERY : Newberry : 61 / 42
CIU : Kinross : 62 / 46
MCD : Mackinac Island : 57 / 44
DRM : Drummond Island : 61 / 44
SJX : Beaver Island : 55 / 45
SLH : Cheboygan : 57 / 43
PZQ : Rogers City : 62 / 45
CVX : Charlevoix : 57 / 45
MGN : Harbor Springs : 62 / 47
ACB : Bellaire : 68 / 40
FKS : Frankfort : 60 / 45
MBL : Manistee : 63 / 42
CAD : Cadillac : 65 / 44
Y31 : West Branch : 70 / 37
OSC : Oscoda : 63 / 43
LDM : Ludington : 65 / 47
RQB : Big Rapids : 65 / 39
MOP : Mount Pleasant : 72 / 45
IKW : Midland : 69 / 42
.END

U.S. Forest Service Remote Automated Weather Stations (RAWS)
Data is only partially quality controlled
18 hour High/Low Temperature ending 8 pm EDT
Minimum Relative Humidity over past 18 hours
12/24 hour Precipitation ending 8 pm EDT
...................................................................
MAX MIN MIN 12 HR 24 HR
ID LOCATION TEMP TEMP RH PRECIP PRECIP
...................................................................
AGRM4: Alger RAWS : 72 / 38 / 42 / 0.00 / 0.00
ATAM4: Atlanta RAWS : 71 / 41 / 40 / 0.00 / 0.00
BCYM4: Barton City RAWS : 67 / 42 / 56 / 0.00 / 0.01
GYGM4: Grayling RAWS : 71 / 41 / 42 / 0.00 / 0.00
INDM4: Indian River RAWS : 68 / 44 / 46 / 0.00 / 0.02
MMOM4: Mio RAWS : 72 / 40 / 41 / 0.00 / 0.00
NMIM4: N Manitou Island : 52 / 42 / 79 / 0.00 / 0.00
RACM4: Raco RAWS : 63 / 47 / 56 / 0.00 / 0.08
REXM4: Rexton RAWS : M / M / M / M / M
RSCM4: Roscommon RAWS : 72 / 36 / M / 0.00 / 0.01
RYDM4: Rudyard RAWS : 67 / 47 / 53 / 0.00 / 0.02
SBDM4: The Bear RAWS : 62 / 44 / 62 / 0.02 / 0.03
SCKM4: Silver Creek RAWS : 72 / 40 / 47 / 0.00 / 0.00
WLLM4: Wellston RAWS : 67 / 43 / 54 / 0.00 / 0.00

The following are precipitation reports received by the National
Weather Service in Gaylord...valid for the time period ending
around 8 pm EDT. All reports have been recorded in inches.

Spotter Reports from Eastern Upper and Northern Lower Michigan:

WATER TIME SNOW
LOCATION RAIN SNOW EQUIV PERIOD DEPTH

No current reports




$$